CDT,Max TemperatureF,Mean TemperatureF,Min TemperatureF,Max Dew PointF,MeanDew PointF,Min DewpointF,Max Humidity, Mean Humidity, Min Humidity, Max Sea Level PressureIn, Mean Sea Level PressureIn, Min Sea Level PressureIn, Max VisibilityMiles, Mean VisibilityMiles, Min VisibilityMiles, Max Wind SpeedMPH, Mean Wind SpeedMPH, Max Gust SpeedMPH,PrecipitationIn, CloudCover, Events, WindDirDegrees
2013-10-1,69,58,45,52,42,33,78,56,27,29.99,29.80,29.55,10,10,10,22,9,32,0.00,0,,252
2013-10-2,68,52,36,51,43,35,97,78,31,30.02,29.96,29.88,10,10,2,18,4,28,0.44,3,Rain-Thunderstorm,76
2013-10-3,52,51,50,51,50,49,98,94,90,30.01,29.92,29.89,10,9,2,14,9,18,0.34,8,Rain-Thunderstorm,30
2013-10-4,54,52,50,51,50,49,97,92,85,30.02,29.97,29.84,10,9,4,24,13,32,0.09,8,Rain-Thunderstorm,52
2013-10-5,55,48,43,52,47,42,99,93,71,29.84,29.78,29.74,10,7,1,21,13,29,0.05,7,Rain,91
2013-10-6,55,48,42,48,44,38,100,89,62,29.86,29.78,29.71,10,8,2,17,7,24,0.05,6,Rain,333
2013-10-7,64,50,36,44,39,36,99,70,36,29.98,29.92,29.84,10,10,10,7,3,,0.00,0,,249
2013-10-8,76,62,47,48,44,39,83,59,33,29.92,29.79,29.70,10,10,10,29,11,34,0.00,0,,162
2013-10-9,71,60,50,52,49,45,83,66,49,30.00,29.95,29.85,10,10,10,14,9,18,0.00,0,,159
2013-10-10,76,64,51,54,50,46,82,65,44,29.99,29.89,29.81,10,10,10,22,10,30,0.00,0,,138
2013-10-11,67,59,51,59,53,45,93,79,64,29.82,29.67,29.52,10,9,1,24,13,34,0.29,3,Rain-Thunderstorm,135
2013-10-12,50,44,38,44,41,35,95,83,74,30.18,29.88,29.65,10,9,2,22,15,31,0.01,7,Rain,244
2013-10-13,56,44,32,40,34,31,99,74,39,30.42,30.35,30.19,10,10,10,9,3,,0.00,0,,288
2013-10-14,45,43,41,43,39,36,93,85,72,30.38,30.19,29.90,10,10,7,20,7,29,0.36,7,Rain,86
2013-10-15,46,44,42,45,43,40,97,93,87,29.92,29.80,29.72,10,8,2,18,15,30,0.50,8,Rain,21
2013-10-16,52,42,32,40,36,31,100,79,52,29.98,29.92,29.85,10,9,0,14,7,18,0.00,2,Fog,284
2013-10-17,46,40,35,44,38,32,95,90,84,29.92,29.84,29.79,10,10,5,18,4,23,0.04,6,Rain,313
2013-10-18,49,39,30,36,33,28,96,81,47,29.99,29.91,29.81,10,10,7,17,6,22,0.00,5,Rain,264
2013-10-19,41,34,28,36,32,28,100,87,64,29.80,29.74,29.68,10,10,5,15,6,21,0.01,6,Rain,271
2013-10-20,36,32,29,33,31,21,100,91,63,29.91,29.73,29.63,10,9,1,22,6,26,0.08,8,Rain-Snow,50
2013-10-21,37,31,24,24,22,18,89,67,56,29.95,29.93,29.91,10,10,10,18,11,25,0.00,6,,296
2013-10-22,38,30,21,30,26,20,96,82,59,30.04,30.00,29.96,10,10,10,14,3,17,0.00,6,,307
2013-10-23,37,32,25,28,22,18,92,68,49,30.13,30.04,29.99,10,10,10,21,8,28,0.00,7,,309
2013-10-24,39,31,23,31,27,19,96,82,60,30.30,30.23,30.13,10,10,10,14,5,18,0.00,6,,285
2013-10-25,58,40,23,41,31,21,94,76,50,30.30,30.02,29.77,10,10,10,22,7,29,0.00,0,,224
2013-10-26,42,35,26,32,27,24,90,70,60,30.12,30.04,29.86,10,10,10,22,14,28,0.00,3,,302
2013-10-27,54,40,26,32,28,24,92,70,44,30.18,29.91,29.78,10,10,10,18,8,23,0.00,0,,303
2013-10-28,38,32,25,27,21,18,78,66,49,30.46,30.38,30.19,10,10,10,16,10,20,0.00,0,,45
2013-10-29,33,30,29,32,28,22,99,89,76,30.42,30.25,30.10,10,9,2,10,7,,0.00,7,Rain-Snow,69
2013-10-30,40,36,32,40,37,32,100,99,96,30.09,29.89,29.68,10,3,0,9,4,,0.03,8,Fog-Rain,75
2013-10-31,39,38,35,40,37,35,100,97,93,29.67,29.51,29.42,10,6,1,12,7,,0.00,8,,285